WBANNO,USDM_WEEK,LONGITUDE,LATITUDE,SMVWC_5_CM_MEAN,SMANOM_5_CM_MEAN,SMPERC_5_CM_30COUNTS,SMPERC_5_CM_70COUNTS,SMVWC_10_CM_MEAN,SMANOM_10_CM_MEAN,SMPERC_10_CM_30COUNTS,SMPERC_10_CM_70COUNTS,SMVWC_20_CM_MEAN,SMANOM_20_CM_MEAN,SMPERC_20_CM_30COUNTS,SMPERC_20_CM_70COUNTS,SMVWC_50_CM_MEAN,SMANOM_50_CM_MEAN,SMPERC_50_CM_30COUNTS,SMPERC_50_CM_70COUNTS,SMVWC_100_CM_MEAN,SMANOM_100_CM_MEAN,SMPERC_100_CM_30COUNTS,SMPERC_100_CM_70COUNTS,SMVWC_TOP_CM_MEAN,SMANOM_TOP_CM_MEAN,SMPERC_TOP_CM_30COUNTS,SMPERC_TOP_CM_70COUNTS,SMVWC_COLUMN_CM_MEAN,SMANOM_COLUMN_CM_MEAN,SMPERC_COLUMN_CM_30COUNTS,SMPERC_COLUMN_CM_70COUNTS
54810,20110519,-86.92,46.33,,,,,,,,,,,,,,,,,,,,,,,,,,,,
54810,20110520,-86.92,46.33,,,,,,,,,,,,,,,,,,,,,,,,,,,,
54810,20110521,-86.92,46.33,,,,,,,,,,,,,,,,,,,,,,,,,,,,
54810,20110522,-86.92,46.33,,,,,,,,,,,,,,,,,,,,,,,,,,,,
54810,20110523,-86.92,46.33,,,,,,,,,,,,,,,,,,,,,,,,,,,,
54810,20110524,-86.92,46.33,,,,,,,,,,,,,,,,,,,,,,,,,,,,
54810,20110525,-86.92,46.33,0.266,1.29,0,0.987,0.262,1.1,0,1,0.191,-0.06,0.338,0.091,0.154,-0.28,0.645,0.059,0.16,-0.44,0.836,0,0.264,1.23,0,0.987,0.206,0.32,0,0.401
54810,20110526,-86.92,46.33,0.268,1.34,0,0.988,0.264,1.14,0,1,0.192,0,0.251,0.096,0.156,-0.22,0.533,0.067,0.161,-0.41,0.72,0,0.266,1.29,0,0.988,0.208,0.38,0,0.506
54810,20110527,-86.92,46.33,0.271,1.41,0,1,0.266,1.2,0,1,0.192,0.04,0.21,0.078,0.155,-0.2,0.448,0.067,0.164,-0.34,0.573,0,0.269,1.36,0,1,0.209,0.45,0,0.652
54810,20110528,-86.92,46.33,0.274,1.48,0,1,0.268,1.25,0,1,0.192,0.08,0.156,0.078,0.156,-0.15,0.309,0.067,0.164,-0.31,0.427,0,0.271,1.42,0,1,0.21,0.51,0,0.799
54810,20110529,-86.92,46.33,0.276,1.55,0,1,0.269,1.28,0,1,0.193,0.15,0.042,0.078,0.158,-0.08,0.164,0.067,0.164,-0.28,0.28,0,0.272,1.47,0,1,0.212,0.57,0,0.945
54810,20110530,-86.92,46.33,0.271,1.48,0,1,0.265,1.2,0,1,0.193,0.18,0.006,0.078,0.159,-0.03,0.018,0.067,0.165,-0.26,0.134,0,0.268,1.39,0,1,0.21,0.57,0,0.988
54810,20110531,-86.92,46.33,0.265,1.39,0,1,0.26,1.1,0,1,0.192,0.17,0,0.066,0.158,-0.01,0,0.055,0.164,-0.24,0.073,0,0.263,1.28,0,1,0.207,0.54,0,0.988
54810,20110601,-86.92,46.33,0.26,1.33,0,1,0.256,1.02,0,1,0.189,0.08,0,0.012,0.156,-0.04,0,0.012,0.165,-0.2,0.006,0,0.258,1.2,0,1,0.205,0.52,0,1
54810,20110602,-86.92,46.33,0.257,1.28,0,1,0.254,0.98,0,1,0.187,0.03,0,0,0.154,-0.05,0,0,0.164,-0.19,0,0,0.255,1.15,0,1,0.203,0.5,0,1
54810,20110603,-86.92,46.33,0.254,1.23,0,1,0.252,0.94,0,1,0.185,0,0,0,0.153,-0.06,0,0,0.163,-0.2,0,0,0.253,1.1,0,1,0.201,0.49,0,1
54810,20110604,-86.92,46.33,0.252,1.21,0,1,0.25,0.91,0,1,0.184,-0.03,0,0,0.152,-0.06,0,0,0.162,-0.2,0.006,0,0.251,1.08,0,1,0.2,0.5,0,1
54810,20110605,-86.92,46.33,0.249,1.15,0,1,0.248,0.88,0,1,0.183,-0.05,0,0,0.15,-0.06,0,0,0.161,-0.21,0.083,0,0.248,1.05,0,1,0.198,0.5,0,1
54810,20110606,-86.92,46.33,0.245,1.08,0,1,0.245,0.84,0,1,0.182,-0.08,0,0,0.149,-0.07,0,0,0.16,-0.22,0.161,0,0.245,0.99,0,1,0.196,0.48,0,0.988
54810,20110607,-86.92,46.33,0.244,1.07,0,1,0.245,0.84,0,1,0.181,-0.07,0,0.06,0.148,-0.09,0,0,0.159,-0.24,0.286,0,0.244,0.99,0,1,0.195,0.49,0,0.946
54810,20110608,-86.92,46.33,0.246,1.1,0,1,0.246,0.89,0,1,0.182,-0.02,0,0.179,0.147,-0.08,0,0,0.158,-0.25,0.345,0,0.246,1.04,0,1,0.196,0.53,0,0.946
54810,20110609,-86.92,46.33,0.246,1.11,0,1,0.246,0.92,0,1,0.182,0.01,0,0.179,0.146,-0.08,0,0,0.157,-0.26,0.345,0,0.246,1.06,0,1,0.195,0.56,0,0.946
54810,20110610,-86.92,46.33,0.246,1.12,0,1,0.246,0.95,0,1,0.182,0.03,0,0.179,0.145,-0.08,0,0,0.156,-0.26,0.351,0,0.246,1.08,0,1,0.195,0.58,0,0.946
54810,20110611,-86.92,46.33,0.245,1.12,0,1,0.246,0.97,0,1,0.182,0.04,0,0.179,0.145,-0.08,0,0,0.156,-0.26,0.363,0,0.246,1.08,0,1,0.195,0.59,0,0.946
54810,20110612,-86.92,46.33,0.251,1.24,0,1,0.25,1.09,0,1,0.183,0.12,0,0.304,0.144,-0.07,0,0,0.155,-0.26,0.298,0,0.251,1.2,0,1,0.197,0.68,0,0.946
54810,20110613,-86.92,46.33,0.256,1.32,0,1,0.253,1.19,0,1,0.184,0.19,0,0.351,0.144,-0.04,0,0,0.155,-0.24,0.22,0,0.254,1.29,0,1,0.199,0.75,0,0.958
54810,20110614,-86.92,46.33,0.255,1.32,0,1,0.253,1.21,0,1,0.184,0.2,0,0.292,0.145,-0.01,0,0,0.155,-0.21,0.095,0,0.254,1.3,0,1,0.198,0.77,0,1
54810,20110615,-86.92,46.33,0.25,1.24,0,1,0.25,1.17,0,1,0.183,0.15,0,0.173,0.144,-0.01,0,0,0.155,-0.2,0.036,0,0.25,1.23,0,1,0.196,0.74,0,1
54810,20110616,-86.92,46.33,0.245,1.17,0,1,0.248,1.13,0,1,0.181,0.11,0,0.173,0.144,0,0,0,0.155,-0.19,0.036,0,0.246,1.17,0,1,0.195,0.7,0,1
54810,20110617,-86.92,46.33,0.241,1.11,0,1,0.245,1.1,0,1,0.18,0.08,0,0.173,0.143,-0.01,0,0,0.154,-0.19,0.03,0,0.243,1.12,0,1,0.193,0.67,0,0.952
54810,20110618,-86.92,46.33,0.236,1.03,0,1,0.243,1.05,0,1,0.179,0.04,0,0.173,0.142,-0.01,0,0,0.154,-0.19,0.018,0,0.239,1.05,0,1,0.191,0.62,0,0.81
54810,20110619,-86.92,46.33,0.223,0.82,0,0.929,0.236,0.9,0,1,0.177,-0.07,0.042,0.048,0.141,-0.03,0,0,0.153,-0.2,0.042,0,0.23,0.86,0,1,0.186,0.48,0,0.667
54810,20110620,-86.92,46.33,0.213,0.66,0,0.798,0.231,0.77,0,1,0.174,-0.17,0.089,0,0.14,-0.06,0,0,0.151,-0.23,0.161,0,0.222,0.71,0,1,0.182,0.36,0,0.524
54810,20110621,-86.92,46.33,0.205,0.54,0,0.673,0.226,0.67,0,1,0.172,-0.25,0.131,0,0.138,-0.1,0,0,0.15,-0.27,0.304,0,0.215,0.6,0,0.946,0.178,0.26,0,0.381
54810,20110622,-86.92,46.33,0.207,0.59,0,0.643,0.227,0.67,0,1,0.171,-0.26,0.161,0.024,0.137,-0.14,0.006,0,0.148,-0.32,0.446,0,0.217,0.63,0,0.923,0.178,0.27,0,0.345
54810,20110623,-86.92,46.33,0.218,0.77,0,0.643,0.234,0.85,0,1,0.177,-0.02,0.161,0.167,0.138,-0.02,0.006,0.119,0.148,-0.29,0.476,0.036,0.226,0.81,0,0.923,0.183,0.44,0,0.345
54810,20110624,-86.92,46.33,0.227,0.91,0,0.643,0.241,0.98,0,1,0.181,0.16,0.161,0.31,0.142,0.16,0.006,0.262,0.15,-0.19,0.476,0.179,0.234,0.95,0,0.923,0.188,0.59,0,0.393
54810,20110625,-86.92,46.33,0.235,1.05,0,0.643,0.247,1.11,0,1,0.185,0.31,0.161,0.452,0.145,0.33,0.006,0.405,0.152,-0.06,0.47,0.321,0.241,1.08,0,0.923,0.193,0.74,0,0.536
54810,20110626,-86.92,46.33,0.241,1.16,0,0.708,0.251,1.21,0.006,0.994,0.188,0.43,0.125,0.589,0.147,0.48,0.012,0.542,0.154,0.05,0.44,0.458,0.246,1.19,0,0.917,0.196,0.86,0.006,0.673
54810,20110627,-86.92,46.33,0.246,1.25,0,0.839,0.256,1.29,0.006,0.994,0.191,0.56,0.077,0.732,0.15,0.63,0.012,0.685,0.157,0.17,0.321,0.601,0.251,1.28,0,0.917,0.2,0.96,0.006,0.815
54810,20110628,-86.92,46.33,0.251,1.33,0,0.964,0.259,1.37,0.006,0.994,0.194,0.67,0.036,0.869,0.153,0.78,0.012,0.827,0.159,0.3,0.179,0.744,0.255,1.36,0,0.97,0.203,1.06,0.006,0.958
54810,20110629,-86.92,46.33,0.248,1.28,0,0.994,0.26,1.36,0.006,0.994,0.195,0.74,0.006,0.988,0.156,0.92,0.006,0.97,0.161,0.42,0.036,0.887,0.254,1.32,0,0.994,0.204,1.08,0.006,0.994
54810,20110630,-86.92,46.33,0.237,1.12,0,0.994,0.253,1.2,0.006,0.994,0.19,0.56,0.006,0.94,0.155,0.9,0.006,0.994,0.162,0.47,0.006,0.994,0.245,1.16,0,0.994,0.199,0.94,0.006,0.994
54810,20110701,-86.92,46.33,0.228,0.99,0,0.994,0.248,1.08,0.006,0.994,0.187,0.45,0.006,0.798,0.153,0.82,0.006,0.994,0.161,0.45,0.006,0.994,0.238,1.03,0,0.994,0.196,0.83,0.006,0.994
54810,20110702,-86.92,46.33,0.22,0.86,0,0.994,0.243,0.97,0.006,0.994,0.185,0.37,0.006,0.655,0.151,0.73,0.006,0.994,0.16,0.41,0.006,0.982,0.232,0.91,0,0.994,0.192,0.73,0.006,0.994
54810,20110703,-86.92,46.33,0.213,0.76,0,0.905,0.24,0.9,0,1,0.183,0.31,0,0.518,0.15,0.67,0,1,0.158,0.38,0,0.875,0.227,0.82,0,1,0.189,0.65,0,0.911
54810,20110704,-86.92,46.33,0.206,0.65,0,0.762,0.236,0.81,0,1,0.18,0.25,0,0.375,0.147,0.59,0,0.94,0.157,0.33,0,0.732,0.221,0.72,0,0.887,0.185,0.57,0,0.768
54810,20110705,-86.92,46.33,0.199,0.53,0,0.619,0.232,0.73,0,0.887,0.178,0.19,0,0.238,0.145,0.51,0,0.798,0.155,0.29,0,0.589,0.215,0.61,0,0.744,0.182,0.49,0,0.625
54810,20110706,-86.92,46.33,0.196,0.48,0,0.554,0.228,0.67,0,0.815,0.176,0.14,0,0.095,0.143,0.44,0,0.655,0.153,0.24,0,0.446,0.212,0.55,0,0.679,0.179,0.43,0,0.554
54810,20110707,-86.92,46.33,0.196,0.47,0,0.554,0.228,0.67,0,0.815,0.175,0.13,0,0,0.141,0.37,0,0.512,0.152,0.2,0,0.304,0.212,0.55,0,0.679,0.178,0.42,0,0.554
54810,20110708,-86.92,46.33,0.195,0.47,0,0.551,0.228,0.67,0,0.814,0.174,0.11,0,0,0.14,0.31,0,0.371,0.15,0.15,0,0.162,0.211,0.55,0,0.677,0.177,0.4,0,0.551
54810,20110709,-86.92,46.33,0.195,0.48,0,0.551,0.227,0.67,0,0.814,0.173,0.1,0,0,0.138,0.27,0,0.228,0.149,0.12,0,0.03,0.211,0.56,0,0.677,0.176,0.4,0,0.551
54810,20110710,-86.92,46.33,0.195,0.5,0,0.647,0.227,0.69,0,0.814,0.173,0.09,0,0,0.137,0.24,0,0.084,0.147,0.09,0,0,0.211,0.58,0,0.677,0.176,0.4,0,0.641
54810,20110711,-86.92,46.33,0.196,0.54,0,0.79,0.227,0.71,0,0.814,0.172,0.1,0,0,0.136,0.23,0,0,0.146,0.07,0,0,0.211,0.61,0,0.79,0.175,0.42,0,0.784
54810,20110712,-86.92,46.33,0.197,0.58,0,0.838,0.228,0.75,0,0.928,0.171,0.11,0,0,0.135,0.21,0,0,0.145,0.06,0,0,0.212,0.65,0,0.934,0.175,0.45,0,0.802
54810,20110713,-86.92,46.33,0.191,0.52,0,0.76,0.226,0.74,0,1,0.17,0.1,0,0,0.134,0.2,0,0,0.144,0.05,0,0,0.209,0.61,0,0.892,0.173,0.43,0,0.731
54810,20110714,-86.92,46.33,0.183,0.41,0,0.617,0.222,0.67,0,1,0.167,0.06,0,0,0.132,0.19,0,0,0.142,0.04,0,0,0.202,0.52,0,0.749,0.169,0.37,0,0.587
54810,20110715,-86.92,46.33,0.175,0.31,0,0.476,0.217,0.59,0,0.899,0.164,0.02,0,0,0.131,0.17,0,0,0.141,0.03,0,0,0.196,0.43,0,0.607,0.166,0.3,0,0.446
54810,20110716,-86.92,46.33,0.167,0.2,0,0.333,0.212,0.52,0,0.756,0.161,-0.02,0,0,0.129,0.14,0,0,0.139,0.01,0,0,0.189,0.34,0,0.464,0.162,0.24,0,0.304
54810,20110717,-86.92,46.33,0.158,0.1,0,0.19,0.206,0.42,0,0.613,0.158,-0.07,0,0,0.128,0.11,0,0,0.138,0,0,0,0.182,0.24,0,0.321,0.158,0.17,0,0.161
54810,20110718,-86.92,46.33,0.15,-0.01,0,0.048,0.199,0.31,0,0.47,0.155,-0.13,0,0,0.126,0.08,0,0,0.136,-0.03,0,0,0.175,0.13,0,0.179,0.153,0.09,0,0.018
54810,20110719,-86.92,46.33,0.143,-0.1,0,0,0.192,0.21,0,0.327,0.151,-0.19,0,0,0.124,0.05,0,0,0.134,-0.05,0,0,0.168,0.04,0,0.036,0.149,0.01,0,0
54810,20110720,-86.92,46.33,0.137,-0.18,0,0,0.186,0.11,0,0.185,0.148,-0.24,0,0,0.122,0.02,0,0,0.132,-0.07,0,0,0.162,-0.04,0,0,0.145,-0.05,0,0
54810,20110721,-86.92,46.33,0.131,-0.24,0,0,0.179,0.01,0,0.042,0.144,-0.29,0,0,0.121,-0.01,0,0,0.13,-0.1,0,0,0.155,-0.12,0,0,0.141,-0.11,0,0
54810,20110722,-86.92,46.33,0.125,-0.31,0.125,0,0.172,-0.1,0.065,0,0.141,-0.35,0.101,0,0.119,-0.04,0,0,0.128,-0.12,0,0,0.149,-0.21,0.101,0,0.137,-0.18,0.03,0
54810,20110723,-86.92,46.33,0.119,-0.38,0.268,0,0.163,-0.23,0.208,0,0.136,-0.43,0.244,0,0.117,-0.07,0,0,0.127,-0.14,0,0,0.141,-0.31,0.244,0,0.132,-0.26,0.173,0
54810,20110724,-86.92,46.33,0.113,-0.45,0.411,0,0.153,-0.36,0.351,0,0.131,-0.52,0.387,0,0.115,-0.11,0,0,0.125,-0.17,0,0,0.133,-0.41,0.387,0,0.127,-0.34,0.315,0
54810,20110725,-86.92,46.33,0.107,-0.49,0.554,0,0.145,-0.47,0.494,0,0.127,-0.58,0.53,0,0.113,-0.14,0,0,0.123,-0.19,0,0,0.126,-0.49,0.53,0,0.123,-0.41,0.458,0
54810,20110726,-86.92,46.33,0.101,-0.55,0.696,0,0.136,-0.59,0.637,0,0.122,-0.65,0.673,0,0.111,-0.18,0,0,0.121,-0.23,0,0,0.119,-0.58,0.673,0,0.118,-0.49,0.601,0
54810,20110727,-86.92,46.33,0.095,-0.6,0.839,0,0.127,-0.7,0.78,0,0.117,-0.73,0.815,0,0.109,-0.23,0,0,0.119,-0.26,0,0,0.111,-0.66,0.815,0,0.113,-0.56,0.744,0
54810,20110728,-86.92,46.33,0.09,-0.64,0.982,0,0.118,-0.81,0.923,0,0.111,-0.8,0.958,0,0.107,-0.27,0,0,0.117,-0.29,0,0,0.104,-0.73,0.958,0,0.109,-0.63,0.887,0
54810,20110729,-86.92,46.33,0.085,-0.66,1,0,0.11,-0.89,1,0,0.106,-0.85,1,0,0.105,-0.31,0.101,0,0.115,-0.33,0,0,0.098,-0.77,1,0,0.104,-0.69,1,0
54810,20110730,-86.92,46.33,0.081,-0.67,1,0,0.104,-0.94,1,0,0.1,-0.9,1,0,0.103,-0.35,0.244,0,0.113,-0.37,0.083,0,0.093,-0.8,1,0,0.1,-0.73,1,0
54810,20110731,-86.92,46.33,0.079,-0.67,1,0,0.098,-0.98,1,0,0.095,-0.95,1,0,0.1,-0.4,0.387,0,0.111,-0.4,0.202,0,0.088,-0.81,1,0,0.097,-0.76,1,0
54810,20110801,-86.92,46.33,0.077,-0.66,0.917,0,0.094,-1,1,0,0.09,-0.98,1,0,0.097,-0.46,0.53,0,0.109,-0.43,0.345,0,0.085,-0.81,1,0,0.093,-0.79,1,0
54810,20110802,-86.92,46.33,0.076,-0.64,0.911,0,0.09,-1.01,1,0,0.084,-1.01,1,0,0.094,-0.51,0.673,0,0.107,-0.46,0.488,0,0.083,-0.8,1,0,0.09,-0.8,1,0
54810,20110803,-86.92,46.33,0.074,-0.62,0.81,0,0.087,-0.99,1,0,0.08,-1.02,1,0,0.092,-0.54,0.815,0,0.105,-0.49,0.631,0,0.081,-0.78,1,0,0.088,-0.8,1,0
54810,20110804,-86.92,46.33,0.073,-0.6,0.673,0,0.085,-0.97,1,0,0.076,-1.01,1,0,0.089,-0.58,0.958,0,0.103,-0.51,0.774,0,0.079,-0.76,1,0,0.085,-0.8,1,0
54810,20110805,-86.92,46.33,0.073,-0.58,0.56,0,0.083,-0.95,1,0,0.073,-1,1,0,0.086,-0.61,1,0,0.101,-0.52,0.917,0,0.078,-0.74,1,0,0.083,-0.79,1,0
54810,20110806,-86.92,46.33,0.072,-0.56,0.476,0,0.081,-0.91,1,0,0.07,-0.97,1,0,0.084,-0.64,1,0,0.099,-0.54,0.976,0,0.077,-0.71,1,0,0.081,-0.77,1,0
54810,20110807,-86.92,46.33,0.071,-0.55,0.423,0,0.081,-0.88,1,0,0.068,-0.94,1,0,0.081,-0.67,1,0,0.098,-0.55,1,0,0.076,-0.69,1,0,0.08,-0.75,1,0
54810,20110808,-86.92,46.33,0.069,-0.55,0.47,0,0.08,-0.84,1,0,0.066,-0.9,1,0,0.079,-0.69,1,0,0.096,-0.56,1,0,0.074,-0.68,1,0,0.078,-0.74,1,0
54810,20110809,-86.92,46.33,0.067,-0.56,0.476,0,0.079,-0.82,1,0,0.064,-0.87,1,0,0.077,-0.71,1,0,0.094,-0.57,1,0,0.073,-0.68,1,0,0.076,-0.73,1,0
54810,20110810,-86.92,46.33,0.065,-0.57,0.577,0,0.077,-0.8,1,0,0.063,-0.86,1,0,0.074,-0.74,1,0,0.092,-0.59,1,0,0.071,-0.68,1,0,0.074,-0.73,1,0
54810,20110811,-86.92,46.33,0.064,-0.58,0.714,0,0.076,-0.79,1,0,0.06,-0.85,1,0,0.071,-0.78,1,0,0.09,-0.59,1,0,0.07,-0.68,1,0,0.072,-0.74,1,0
54810,20110812,-86.92,46.33,0.062,-0.59,0.827,0,0.074,-0.78,1,0,0.058,-0.84,1,0,0.069,-0.81,1,0,0.088,-0.61,1,0,0.068,-0.69,1,0,0.07,-0.75,1,0
54810,20110813,-86.92,46.33,0.061,-0.6,0.911,0,0.073,-0.77,1,0,0.057,-0.84,1,0,0.066,-0.83,1,0,0.086,-0.62,1,0,0.067,-0.7,1,0,0.069,-0.76,1,0
54810,20110814,-86.92,46.33,0.06,-0.62,0.964,0,0.072,-0.76,1,0,0.055,-0.84,1,0,0.064,-0.84,1,0,0.083,-0.63,1,0,0.066,-0.71,1,0,0.067,-0.77,1,0
54810,20110815,-86.92,46.33,0.059,-0.63,1,0,0.071,-0.76,1,0,0.054,-0.85,1,0,0.062,-0.86,1,0,0.081,-0.64,1,0,0.065,-0.73,1,0,0.065,-0.78,1,0
54810,20110816,-86.92,46.33,0.058,-0.65,1,0,0.07,-0.77,1,0,0.053,-0.85,1,0,0.06,-0.87,1,0,0.079,-0.65,1,0,0.064,-0.75,1,0,0.064,-0.8,1,0
54810,20110817,-86.92,46.33,0.057,-0.67,1,0,0.068,-0.78,1,0,0.051,-0.86,1,0,0.058,-0.88,1,0,0.076,-0.66,1,0,0.063,-0.77,1,0,0.062,-0.81,1,0
54810,20110818,-86.92,46.33,0.056,-0.69,1,0,0.067,-0.79,1,0,0.05,-0.86,1,0,0.055,-0.89,1,0,0.073,-0.69,1,0,0.062,-0.78,1,0,0.06,-0.82,1,0
54810,20110819,-86.92,46.33,0.055,-0.71,1,0,0.066,-0.81,1,0,0.049,-0.87,1,0,0.053,-0.89,1,0,0.07,-0.71,1,0,0.06,-0.8,1,0,0.059,-0.83,1,0
54810,20110820,-86.92,46.33,0.054,-0.71,1,0,0.064,-0.82,1,0,0.048,-0.88,1,0,0.051,-0.89,1,0,0.068,-0.73,1,0,0.059,-0.81,1,0,0.057,-0.84,1,0
54810,20110821,-86.92,46.33,0.054,-0.72,1,0,0.063,-0.84,1,0,0.047,-0.89,1,0,0.049,-0.89,1,0,0.065,-0.74,1,0,0.058,-0.81,1,0,0.055,-0.85,1,0
54810,20110822,-86.92,46.33,0.053,-0.72,1,0,0.062,-0.85,1,0,0.046,-0.89,1,0,0.046,-0.89,1,0,0.062,-0.76,1,0,0.057,-0.82,1,0,0.054,-0.86,1,0
54810,20110823,-86.92,46.33,0.052,-0.72,1,0,0.061,-0.86,1,0,0.045,-0.91,1,0,0.044,-0.89,1,0,0.06,-0.77,1,0,0.057,-0.82,1,0,0.052,-0.87,1,0
54810,20110824,-86.92,46.33,0.051,-0.72,1,0,0.06,-0.87,1,0,0.044,-0.92,1,0,0.043,-0.88,1,0,0.057,-0.79,1,0,0.056,-0.82,1,0,0.051,-0.88,1,0
54810,20110825,-86.92,46.33,0.051,-0.73,1,0,0.059,-0.89,1,0,0.043,-0.94,1,0,0.042,-0.88,1,0,0.054,-0.8,1,0,0.055,-0.82,1,0,0.05,-0.89,1,0
54810,20110826,-86.92,46.33,0.051,-0.75,1,0,0.059,-0.91,1,0,0.043,-0.96,1,0,0.04,-0.89,1,0,0.052,-0.81,1,0,0.055,-0.83,1,0,0.049,-0.91,1,0
54810,20110827,-86.92,46.33,0.05,-0.78,1,0,0.058,-0.94,1,0,0.042,-0.99,1,0,0.039,-0.89,1,0,0.049,-0.83,1,0,0.054,-0.86,1,0,0.048,-0.93,1,0
54810,20110828,-86.92,46.33,0.049,-0.82,1,0,0.057,-0.98,1,0,0.042,-1.03,1,0,0.037,-0.9,1,0,0.047,-0.84,1,0,0.053,-0.89,1,0,0.046,-0.96,1,0
54810,20110829,-86.92,46.33,0.048,-0.86,1,0,0.057,-1.04,1,0,0.041,-1.07,1,0,0.037,-0.9,1,0,0.044,-0.86,1,0,0.052,-0.93,1,0,0.045,-0.99,1,0
54810,20110830,-86.92,46.33,0.047,-0.91,1,0,0.056,-1.11,1,0,0.04,-1.11,1,0,0.037,-0.9,1,0,0.041,-0.88,1,0,0.051,-0.99,1,0,0.044,-1.04,1,0
54810,20110831,-86.92,46.33,0.046,-0.97,1,0,0.055,-1.18,1,0,0.04,-1.16,1,0,0.037,-0.9,1,0,0.039,-0.9,1,0,0.051,-1.05,1,0,0.043,-1.08,1,0
54810,20110901,-86.92,46.33,0.045,-1.03,1,0,0.054,-1.26,1,0,0.039,-1.2,1,0,0.037,-0.9,1,0,0.036,-0.92,1,0,0.05,-1.13,1,0,0.042,-1.13,1,0
54810,20110902,-86.92,46.33,0.045,-1.09,1,0,0.054,-1.36,1,0,0.038,-1.25,1,0,0.038,-0.88,1,0,0.034,-0.94,1,0,0.049,-1.21,1,0,0.042,-1.17,1,0
54810,20110903,-86.92,46.33,0.044,-1.16,1,0,0.053,-1.46,1,0,0.038,-1.29,1,0,0.038,-0.88,1,0,0.032,-0.94,1,0,0.048,-1.3,1,0,0.041,-1.21,1,0
54810,20110904,-86.92,46.33,0.043,-1.23,1,0,0.052,-1.56,1,0,0.037,-1.33,1,0,0.038,-0.88,1,0,0.03,-0.95,1,0,0.048,-1.39,1,0,0.04,-1.26,1,0
54810,20110905,-86.92,46.33,0.044,-1.29,1,0,0.052,-1.67,1,0,0.037,-1.37,1,0,0.038,-0.88,1,0,0.028,-0.94,1,0,0.048,-1.48,1,0,0.04,-1.3,1,0
54810,20110906,-86.92,46.33,0.044,-1.36,1,0,0.051,-1.77,1,0,0.036,-1.44,1,0,0.037,-0.89,1,0,0.026,-0.93,1,0,0.047,-1.56,1,0,0.039,-1.33,1,0
54810,20110907,-86.92,46.33,0.044,-1.42,1,0,0.05,-1.87,1,0,0.036,-1.5,1,0,0.036,-0.91,1,0,0.025,-0.92,1,0,0.047,-1.64,1,0,0.038,-1.36,1,0
54810,20110908,-86.92,46.33,0.044,-1.47,1,0,0.05,-1.95,1,0,0.036,-1.57,1,0,0.036,-0.92,1,0,0.024,-0.9,1,0,0.047,-1.7,1,0,0.038,-1.4,1,0
54810,20110909,-86.92,46.33,0.043,-1.52,1,0,0.05,-2.01,1,0,0.035,-1.63,1,0,0.036,-0.94,1,0,0.023,-0.89,1,0,0.047,-1.76,1,0,0.037,-1.43,1,0
54810,20110910,-86.92,46.33,0.043,-1.57,1,0,0.05,-2.05,1,0,0.035,-1.69,1,0,0.036,-0.96,1,0,0.022,-0.89,1,0,0.046,-1.81,1,0,0.037,-1.47,1,0
54810,20110911,-86.92,46.33,0.043,-1.62,1,0,0.049,-2.09,1,0,0.035,-1.75,1,0,0.035,-0.97,1,0,0.021,-0.9,1,0,0.046,-1.85,1,0,0.037,-1.51,1,0
54810,20110912,-86.92,46.33,0.042,-1.68,1,0,0.049,-2.12,1,0,0.034,-1.82,1,0,0.035,-1,1,0,0.02,-0.92,1,0,0.046,-1.9,1,0,0.036,-1.54,1,0
54810,20110913,-86.92,46.33,0.041,-1.72,1,0,0.049,-2.15,1,0,0.034,-1.87,1,0,0.035,-1.01,1,0,0.019,-0.95,1,0,0.045,-1.94,1,0,0.036,-1.57,1,0
54810,20110914,-86.92,46.33,0.041,-1.78,1,0,0.049,-2.21,1,0,0.034,-1.94,1,0,0.035,-1.03,1,0,0.018,-0.97,1,0,0.045,-2,1,0,0.035,-1.6,1,0
54810,20110915,-86.92,46.33,0.041,-1.84,1,0,0.049,-2.31,1,0,0.034,-2.02,1,0,0.035,-1.05,1,0,0.017,-1.01,1,0,0.045,-2.07,1,0,0.035,-1.63,1,0
54810,20110916,-86.92,46.33,0.042,-1.9,1,0,0.048,-2.48,1,0,0.034,-2.11,1,0,0.034,-1.07,1,0,0.016,-1.05,1,0,0.045,-2.18,1,0,0.035,-1.66,1,0
54810,20110917,-86.92,46.33,0.044,-1.99,1,0,0.048,-2.7,1,0,0.034,-2.25,1,0,0.033,-1.1,1,0,0.016,-1.09,1,0,0.046,-2.34,1,0,0.035,-1.71,1,0
54810,20110918,-86.92,46.33,0.045,-2.12,1,0,0.048,-2.99,1,0,0.034,-2.48,1,0,0.033,-1.13,1,0,0.016,-1.13,1,0,0.046,-2.53,1,0,0.035,-1.78,1,0
54810,20110919,-86.92,46.33,0.047,-2.25,1,0,0.047,-3.28,1,0,0.034,-2.74,1,0,0.033,-1.14,1,0,0.015,-1.17,1,0,0.047,-2.74,1,0,0.035,-1.86,1,0
54810,20110920,-86.92,46.33,0.059,-2.17,1,0,0.05,-3.47,1,0,0.033,-3.01,1,0,0.033,-1.16,1,0,0.015,-1.2,1,0,0.055,-2.79,1,0,0.038,-1.93,1,0
54810,20110921,-86.92,46.33,0.069,-2.1,1,0,0.056,-3.58,1,0,0.033,-3.27,1,0,0.033,-1.18,1,0,0.015,-1.24,1,0,0.063,-2.8,1,0,0.041,-2.01,1,0
54810,20110922,-86.92,46.33,0.079,-2.03,1,0,0.062,-3.65,1,0,0.033,-3.52,1,0,0.033,-1.21,1,0,0.015,-1.27,1,0,0.071,-2.8,1,0,0.045,-2.1,1,0
54810,20110923,-86.92,46.33,0.087,-1.97,1,0,0.068,-3.66,1,0,0.034,-3.75,1,0,0.033,-1.3,1,0,0.015,-1.3,1,0,0.077,-2.77,1,0,0.047,-2.21,1,0
54810,20110924,-86.92,46.33,0.095,-1.87,1,0,0.074,-3.62,1,0,0.034,-3.94,1,0,0.034,-1.4,1,0,0.015,-1.34,1,0,0.084,-2.7,1,0,0.05,-2.3,1,0
54810,20110925,-86.92,46.33,0.103,-1.73,1,0,0.08,-3.54,1,0,0.034,-4.02,1,0,0.034,-1.53,1,0,0.015,-1.39,1,0,0.091,-2.59,1,0,0.053,-2.39,1,0
54810,20110926,-86.92,46.33,0.111,-1.57,1,0,0.087,-3.44,1,0,0.035,-4.07,1,0,0.034,-1.67,1,0,0.015,-1.44,1,0,0.099,-2.45,1,0,0.056,-2.45,1,0
54810,20110927,-86.92,46.33,0.113,-1.56,0.97,0.012,0.092,-3.37,1,0,0.035,-4.09,1,0,0.034,-1.82,1,0,0.015,-1.49,1,0,0.102,-2.39,0.982,0,0.058,-2.52,1,0
54810,20110928,-86.92,46.33,0.123,-1.38,0.827,0.012,0.108,-2.94,0.857,0,0.046,-3.79,1,0,0.034,-1.97,1,0,0.014,-1.55,1,0,0.115,-2.08,0.839,0,0.065,-2.41,1,0
54810,20110929,-86.92,46.33,0.131,-1.23,0.792,0.012,0.122,-2.56,0.845,0,0.06,-3.43,1,0,0.034,-2.12,1,0,0.015,-1.6,1,0,0.126,-1.82,0.815,0,0.072,-2.29,1,0
54810,20110930,-86.92,46.33,0.148,-0.88,0.69,0.113,0.142,-1.93,0.75,0.089,0.08,-2.85,0.923,0.071,0.039,-2.09,0.964,0.03,0.016,-1.63,1,0,0.145,-1.34,0.714,0.095,0.085,-2.02,0.929,0.042
54810,20111001,-86.92,46.33,0.164,-0.56,0.548,0.226,0.164,-1.28,0.607,0.232,0.102,-2.22,0.78,0.155,0.055,-1.79,0.821,0.042,0.029,-1.5,1,0,0.164,-0.88,0.571,0.238,0.103,-1.62,0.786,0.048
54810,20111002,-86.92,46.33,0.176,-0.31,0.405,0.226,0.183,-0.7,0.464,0.375,0.122,-1.65,0.637,0.155,0.07,-1.52,0.679,0.042,0.043,-1.34,1,0,0.179,-0.48,0.429,0.274,0.119,-1.26,0.643,0.048
54810,20111003,-86.92,46.33,0.187,-0.11,0.262,0.226,0.2,-0.16,0.321,0.375,0.141,-1.12,0.53,0.155,0.083,-1.27,0.548,0.042,0.056,-1.18,1,0,0.193,-0.12,0.286,0.274,0.133,-0.92,0.506,0.048
54810,20111004,-86.92,46.33,0.194,0.02,0.202,0.214,0.215,0.29,0.179,0.375,0.159,-0.61,0.53,0.155,0.096,-1.02,0.548,0.042,0.069,-1.04,1,0,0.204,0.14,0.161,0.274,0.147,-0.62,0.506,0.048
54810,20111005,-86.92,46.33,0.194,-0.03,0.345,0.214,0.216,0.3,0.179,0.375,0.166,-0.44,0.53,0.155,0.108,-0.79,0.548,0.042,0.082,-0.91,1,0,0.205,0.11,0.262,0.274,0.153,-0.49,0.506,0.048
54810,20111006,-86.92,46.33,0.196,-0.04,0.381,0.214,0.218,0.33,0.101,0.375,0.171,-0.35,0.53,0.155,0.119,-0.56,0.548,0.042,0.094,-0.79,1,0,0.207,0.12,0.286,0.274,0.159,-0.38,0.506,0.048
54810,20111007,-86.92,46.33,0.188,-0.28,0.482,0.113,0.212,0.12,0.196,0.286,0.168,-0.49,0.607,0.083,0.125,-0.46,0.583,0.012,0.105,-0.69,1,0,0.2,-0.11,0.387,0.179,0.159,-0.42,0.577,0.006
54810,20111008,-86.92,46.33,0.181,-0.48,0.625,0,0.206,-0.13,0.339,0.143,0.162,-0.69,0.75,0,0.12,-0.63,0.726,0,0.104,-0.75,1,0,0.194,-0.33,0.53,0.036,0.155,-0.59,0.72,0
54810,20111009,-86.92,46.33,0.177,-0.63,0.768,0,0.202,-0.3,0.482,0,0.159,-0.84,0.893,0,0.116,-0.76,0.869,0,0.103,-0.82,1,0,0.19,-0.49,0.673,0,0.151,-0.73,0.863,0
54810,20111010,-86.92,46.33,0.174,-0.77,0.911,0,0.199,-0.46,0.625,0,0.156,-0.97,1,0,0.113,-0.87,1,0,0.102,-0.89,1,0,0.186,-0.64,0.815,0,0.149,-0.85,1,0
54810,20111011,-86.92,46.33,0.171,-0.91,1,0,0.196,-0.6,0.768,0,0.154,-1.09,1,0,0.111,-0.98,1,0,0.101,-0.96,1,0,0.183,-0.77,0.958,0,0.146,-0.97,1,0
54810,20111012,-86.92,46.33,0.168,-1.04,1,0,0.193,-0.73,0.911,0,0.152,-1.18,1,0,0.109,-1.08,1,0,0.1,-1.01,1,0,0.18,-0.89,1,0,0.144,-1.08,1,0
54810,20111013,-86.92,46.33,0.165,-1.17,1,0,0.19,-0.85,1,0,0.15,-1.27,1,0,0.108,-1.18,1,0,0.1,-1.06,1,0,0.178,-1,1,0,0.143,-1.18,1,0
54810,20111014,-86.92,46.33,0.165,-1.22,0.976,0.018,0.189,-0.94,0.988,0,0.148,-1.34,1,0,0.107,-1.27,1,0,0.1,-1.11,1,0,0.177,-1.06,0.982,0.012,0.142,-1.26,1,0
54810,20111015,-86.92,46.33,0.174,-0.96,0.833,0.131,0.195,-0.76,0.845,0.101,0.152,-1.26,0.964,0,0.107,-1.34,1,0,0.1,-1.15,1,0,0.185,-0.84,0.839,0.119,0.145,-1.2,0.964,0
54810,20111016,-86.92,46.33,0.183,-0.74,0.69,0.202,0.201,-0.55,0.702,0.238,0.157,-1.1,0.821,0,0.111,-1.27,1,0,0.102,-1.16,1,0,0.192,-0.62,0.696,0.208,0.151,-1.09,0.875,0
54810,20111017,-86.92,46.33,0.188,-0.6,0.589,0.202,0.206,-0.4,0.56,0.238,0.161,-0.99,0.81,0,0.115,-1.2,1,0,0.104,-1.17,1,0,0.197,-0.47,0.554,0.208,0.155,-1,0.875,0
54810,20111018,-86.92,46.33,0.193,-0.49,0.589,0.202,0.21,-0.27,0.417,0.238,0.164,-0.89,0.81,0,0.12,-1.12,1,0,0.107,-1.16,1,0,0.202,-0.36,0.482,0.208,0.159,-0.92,0.875,0
54810,20111019,-86.92,46.33,0.199,-0.35,0.589,0.202,0.215,-0.13,0.274,0.238,0.168,-0.8,0.81,0,0.124,-1.05,1,0,0.111,-1.15,1,0,0.207,-0.23,0.405,0.208,0.163,-0.82,0.875,0
54810,20111020,-86.92,46.33,0.204,-0.21,0.589,0.202,0.22,0.03,0.131,0.238,0.172,-0.7,0.81,0,0.128,-0.95,1,0,0.115,-1.12,1,0,0.212,-0.08,0.274,0.208,0.168,-0.71,0.875,0
54810,20111021,-86.92,46.33,0.207,-0.13,0.613,0.185,0.224,0.16,0,0.238,0.175,-0.61,0.81,0,0.133,-0.84,1,0,0.119,-1.09,1,0,0.216,0.01,0.292,0.196,0.172,-0.62,0.875,0
54810,20111022,-86.92,46.33,0.201,-0.36,0.756,0.071,0.221,0.02,0.065,0.137,0.174,-0.67,0.845,0,0.137,-0.76,1,0,0.123,-1.06,1,0,0.211,-0.17,0.435,0.089,0.171,-0.66,0.911,0
54810,20111023,-86.92,46.33,0.196,-0.55,0.899,0,0.217,-0.14,0.208,0,0.172,-0.79,0.988,0,0.136,-0.81,1,0,0.125,-1.05,1,0,0.207,-0.34,0.577,0,0.169,-0.76,1,0